Weather History for Covington, KY

Change the Weather History Date:

Sunday, June 2, 2013

  Actual Average Record
Temperature  
Mean Temperature 71 °F 68 °F  
Max Temperature 79 °F 79 °F 94 °F (1895)
Min Temperature 63 °F 58 °F 45 °F (1964)
Degree Days  
Heating Degree Days 0 1  
Month to date heating degree days 0 3  
Since 1 June heating degree days 0 3  
Since 1 July heating degree days 4980 4963  
Cooling Degree Days 6 5  
Month to date cooling degree days 15 10  
Year to date cooling degree days 154 104  
Since 1 June cooling degree days 15 10  
Growing Degree Days 22 (Base 50)    
Moisture  
Dew Point 62 °F    
Average Humidity 73    
Maximum Humidity 93    
Minimum Humidity 52    
Precipitation  
Precipitation 0.00 in 0.15 in 1.67 in (1947)
Month to date precipitation 0.02 0.30  
Year to date precipitation 17.90 18.89  
Snow  
Snow 0.00 in 0.00 in 0.00 in ()
Month to date snowfall 0.0 0.0  
Since 1 June snowfall 0.0 0.0  
Since 1 July snowfall 25.2 22.1  
Snow Depth 0.00 in    
Sea Level Pressure  
Sea Level Pressure 29.87 in    
Wind  
Wind Speed 9 mph (WSW)    
Max Wind Speed 15 mph    
Max Gust Speed 21 mph    
Visibility 10 miles    
Events      
T = Trace of Precipitation, MM = Missing Value Source: NWS Daily Summary

Daily Weather History Graph

Daily Weather History Graph

Search for Another Location

Airport:

Trip Planner

Search our weather history database for the weather conditions in past years. The results will help you decide how hot, cold, wet, or windy it might be!

Date:

Astronomy

Jun. 02, 2013 Rise Set
Actual Time 6:14 AM EDT 8:59 PM EDT
Civil Twilight 5:42 AM EDT 9:31 PM EDT
Nautical Twilight 5:03 AM EDT 10:10 PM EDT
Astronomical Twilight 4:18 AM EDT 10:55 PM EDT
Moon 2:38 AM EDT (6/2) 3:31 PM EDT (6/2)
Length of Visible Light 15h 48m
Length of Day
14h 45m
Waning Crescent, 31% of the Moon is Illuminated
Jun 2
Waning Crescent
Jun 8
New
Jun 16
First Quarter
Jun 23
Full
Jun 30
Last Quarter

Hourly Weather History & Observations

Time (EDT) Temp. Dew Point Humidity Pressure Visibility Wind Dir Wind Speed Gust Speed Precip Events Conditions
12:52 AM 69.1 °F 64.9 °F 87% 29.84 in 10.0 mi SW 8.1 mph - N/A   Partly Cloudy
1:44 AM 68.0 °F 64.4 °F 88% 29.86 in 10.0 mi SW 9.2 mph - N/A   Mostly Cloudy
1:52 AM 68.0 °F 64.9 °F 90% 29.83 in 10.0 mi SW 9.2 mph - N/A   Mostly Cloudy
2:28 AM 66.2 °F 64.4 °F 94% 29.85 in 10.0 mi SW 8.1 mph - N/A   Scattered Clouds
2:52 AM 66.9 °F 64.9 °F 93% 29.83 in 10.0 mi SW 8.1 mph - N/A   Scattered Clouds
3:02 AM 66.2 °F 64.4 °F 94% 29.86 in 10.0 mi WSW 9.2 mph - N/A   Mostly Cloudy
3:35 AM 66.2 °F 64.4 °F 94% 29.86 in 10.0 mi SW 6.9 mph - N/A   Overcast
3:52 AM 66.9 °F 64.9 °F 93% 29.84 in 10.0 mi SW 9.2 mph 16.1 mph N/A   Overcast
4:17 AM 66.2 °F 64.4 °F 94% 29.86 in 10.0 mi SW 8.1 mph - N/A   Overcast
4:52 AM 66.9 °F 64.0 °F 90% 29.83 in 10.0 mi Variable 6.9 mph - N/A   Overcast
5:34 AM 66.2 °F 62.6 °F 88% 29.87 in 10.0 mi WSW 4.6 mph - N/A   Scattered Clouds
5:52 AM 66.0 °F 63.0 °F 90% 29.85 in 10.0 mi WSW 4.6 mph - N/A   Mostly Cloudy
5:59 AM 66.2 °F 62.6 °F 88% 29.88 in 10.0 mi WSW 4.6 mph - N/A   Scattered Clouds
6:06 AM 66.2 °F 62.6 °F 88% 29.88 in 10.0 mi SW 5.8 mph - N/A   Mostly Cloudy
6:52 AM 66.0 °F 62.1 °F 87% 29.87 in 10.0 mi WSW 5.8 mph - N/A   Mostly Cloudy
7:52 AM 66.0 °F 63.0 °F 90% 29.88 in 10.0 mi WSW 8.1 mph - N/A   Scattered Clouds
8:52 AM 68.0 °F 62.1 °F 81% 29.88 in 10.0 mi West 10.4 mph - N/A   Scattered Clouds
9:52 AM 70.0 °F 61.0 °F 73% 29.90 in 10.0 mi WSW 10.4 mph - N/A   Scattered Clouds
10:52 AM 71.1 °F 60.1 °F 68% 29.90 in 10.0 mi West 5.8 mph - N/A   Mostly Cloudy
11:52 AM 73.0 °F 60.1 °F 64% 29.91 in 10.0 mi SW 10.4 mph 16.1 mph N/A   Scattered Clouds
12:52 PM 75.0 °F 59.0 °F 57% 29.90 in 10.0 mi SSW 8.1 mph - N/A   Scattered Clouds
1:52 PM 77.0 °F 60.1 °F 56% 29.89 in 10.0 mi West 8.1 mph - N/A   Scattered Clouds
2:52 PM 78.1 °F 60.1 °F 54% 29.87 in 10.0 mi WNW 6.9 mph - N/A   Scattered Clouds
3:52 PM 75.9 °F 59.0 °F 56% 29.87 in 10.0 mi West 11.5 mph - N/A   Mostly Cloudy
4:52 PM 78.1 °F 59.0 °F 52% 29.86 in 10.0 mi NW 12.7 mph - N/A   Mostly Cloudy
5:52 PM 75.9 °F 59.0 °F 56% 29.86 in 10.0 mi NW 12.7 mph 20.7 mph N/A   Mostly Cloudy
6:52 PM 73.9 °F 60.1 °F 62% 29.87 in 10.0 mi WNW 12.7 mph - N/A   Mostly Cloudy
7:52 PM 72.0 °F 59.0 °F 64% 29.88 in 10.0 mi WNW 10.4 mph - N/A   Scattered Clouds
8:52 PM 70.0 °F 57.9 °F 65% 29.88 in 10.0 mi WNW 8.1 mph - N/A   Partly Cloudy
9:52 PM 68.0 °F 57.9 °F 70% 29.90 in 10.0 mi WNW 6.9 mph - N/A   Scattered Clouds
10:52 PM 66.0 °F 59.0 °F 78% 29.92 in 10.0 mi NNW 6.9 mph - N/A   Partly Cloudy
11:52 PM 64.9 °F 60.1 °F 84% 29.93 in 10.0 mi North 10.4 mph - N/A   Partly Cloudy